TimeEDT,TemperatureF,Dew PointF,Humidity,Sea Level PressureIn,VisibilityMPH,Wind Direction,Wind SpeedMPH,Gust SpeedMPH,PrecipitationIn,Events,Conditions,WindDirDegrees,DateUTC
12:56 AM,48.0,45.0,89,29.95,10.0,Calm,Calm,-,N/A,,Mostly Cloudy,0,2012-09-30 04:56:00
1:56 AM,46.0,44.1,93,29.94,3.0,Calm,Calm,-,N/A,,Overcast,0,2012-09-30 05:56:00
1:59 AM,46.4,44.6,93,29.93,1.8,Calm,Calm,-,N/A,,Overcast,0,2012-09-30 05:59:00
2:04 AM,46.4,44.6,93,29.93,0.8,Calm,Calm,-,N/A,,Overcast,0,2012-09-30 06:04:00
2:11 AM,46.4,44.6,93,29.93,0.2,Calm,Calm,-,N/A,Fog,Fog,0,2012-09-30 06:11:00
2:50 AM,44.6,42.8,93,29.92,1.0,Calm,Calm,-,N/A,,Mist,0,2012-09-30 06:50:00
2:54 AM,44.6,42.8,93,29.91,2.0,Calm,Calm,-,N/A,,Mostly Cloudy,0,2012-09-30 06:54:00
2:56 AM,45.0,43.0,93,29.93,2.5,Calm,Calm,-,N/A,,Mostly Cloudy,0,2012-09-30 06:56:00
3:03 AM,44.6,42.8,93,29.91,4.0,Calm,Calm,-,N/A,,Scattered Clouds,0,2012-09-30 07:03:00
3:10 AM,44.6,42.8,93,29.91,1.8,Calm,Calm,-,N/A,,Mostly Cloudy,0,2012-09-30 07:10:00
3:15 AM,44.6,42.8,93,29.91,0.8,Calm,Calm,-,N/A,,Mostly Cloudy,0,2012-09-30 07:15:00
3:29 AM,44.6,42.8,93,29.91,0.2,Calm,Calm,-,N/A,Fog,Fog,0,2012-09-30 07:29:00
3:51 AM,44.6,42.8,93,29.91,1.0,NNW,3.5,-,N/A,,Overcast,330,2012-09-30 07:51:00
3:56 AM,44.1,42.1,93,29.92,3.0,NW,3.5,-,N/A,,Overcast,310,2012-09-30 07:56:00
4:05 AM,44.6,42.8,93,29.91,0.8,Calm,Calm,-,N/A,,Overcast,0,2012-09-30 08:05:00
4:15 AM,44.6,42.8,93,29.91,0.2,NW,3.5,-,N/A,Fog,Fog,320,2012-09-30 08:15:00
4:56 AM,45.0,42.1,90,29.93,0.2,North,4.6,-,N/A,Fog,Fog,350,2012-09-30 08:56:00
5:20 AM,44.6,42.8,93,29.91,0.8,Calm,Calm,-,N/A,,Mist,0,2012-09-30 09:20:00
5:46 AM,44.6,42.8,93,29.92,0.5,Calm,Calm,-,N/A,Fog,Fog,0,2012-09-30 09:46:00
5:56 AM,45.0,43.0,93,29.93,1.0,Calm,Calm,-,N/A,,Overcast,0,2012-09-30 09:56:00
6:05 AM,44.6,42.8,93,29.92,0.8,Calm,Calm,-,N/A,,Overcast,0,2012-09-30 10:05:00
6:15 AM,44.6,42.8,93,29.91,1.8,NNW,4.6,-,N/A,,Overcast,330,2012-09-30 10:15:00
6:33 AM,44.6,42.8,93,29.91,0.5,NNW,5.8,-,0.00,Fog-Rain,Light Rain,340,2012-09-30 10:33:00
6:56 AM,45.0,43.0,93,29.93,1.2,NW,4.6,-,0.00,Rain,Light Rain,320,2012-09-30 10:56:00
7:01 AM,44.6,42.8,93,29.91,3.0,NNW,3.5,-,0.00,Rain,Light Rain,330,2012-09-30 11:01:00
7:56 AM,46.0,44.1,93,29.93,6.0,Calm,Calm,-,0.00,,Overcast,0,2012-09-30 11:56:00
8:20 AM,44.6,42.8,93,29.91,1.8,Calm,Calm,-,0.00,Rain,Light Rain,0,2012-09-30 12:20:00
8:32 AM,46.4,44.6,93,29.91,4.0,Calm,Calm,-,0.00,,Overcast,0,2012-09-30 12:32:00
8:56 AM,46.0,44.1,93,29.93,10.0,NNW,4.6,-,0.00,Rain,Light Rain,330,2012-09-30 12:56:00
9:38 AM,48.2,46.4,93,29.91,7.0,NNE,3.5,-,0.01,Rain,Light Rain,20,2012-09-30 13:38:00
9:49 AM,46.4,44.6,93,29.91,1.8,North,4.6,-,0.01,Rain,Light Rain,10,2012-09-30 13:49:00
9:56 AM,46.9,45.0,93,29.93,0.5,NNE,5.8,-,0.01,Fog,Fog,20,2012-09-30 13:56:00
10:03 AM,46.4,44.6,93,29.91,1.0,North,5.8,-,0.00,Rain,Light Rain,360,2012-09-30 14:03:00
10:06 AM,46.4,44.6,93,29.91,4.0,North,5.8,-,0.00,Rain,Light Rain,10,2012-09-30 14:06:00
10:34 AM,48.2,44.6,87,29.90,10.0,North,4.6,-,0.00,,Overcast,350,2012-09-30 14:34:00
10:42 AM,48.2,46.4,93,29.90,10.0,NNW,4.6,-,0.00,,Mostly Cloudy,330,2012-09-30 14:42:00
10:56 AM,50.0,46.0,86,29.91,10.0,NNW,5.8,-,0.00,,Mostly Cloudy,330,2012-09-30 14:56:00
11:06 AM,51.8,46.4,82,29.90,10.0,Variable,4.6,-,N/A,,Mostly Cloudy,0,2012-09-30 15:06:00
11:14 AM,51.8,46.4,82,29.90,10.0,NE,8.1,-,N/A,,Mostly Cloudy,40,2012-09-30 15:14:00
11:29 AM,50.0,44.6,82,29.90,10.0,North,8.1,-,N/A,,Overcast,360,2012-09-30 15:29:00
11:39 AM,51.8,44.6,76,29.89,10.0,NNW,8.1,-,N/A,,Overcast,340,2012-09-30 15:39:00
11:56 AM,51.1,44.1,77,29.91,10.0,NNW,8.1,-,N/A,,Overcast,340,2012-09-30 15:56:00
1:56 PM,52.0,43.0,71,29.89,10.0,NW,5.8,-,N/A,,Overcast,320,2012-09-30 17:56:00
2:56 PM,54.0,43.0,66,29.88,10.0,West,9.2,-,N/A,,Overcast,280,2012-09-30 18:56:00
3:39 PM,53.6,42.8,67,29.87,10.0,North,6.9,-,N/A,,Overcast,350,2012-09-30 19:39:00
3:52 PM,53.6,42.8,67,29.87,10.0,North,5.8,-,N/A,,Overcast,350,2012-09-30 19:52:00
4:28 PM,48.2,44.6,87,29.87,7.0,North,3.5,-,0.02,Rain,Light Rain,350,2012-09-30 20:28:00
4:40 PM,48.2,44.6,87,29.87,10.0,Calm,Calm,-,0.02,Rain,Light Rain,0,2012-09-30 20:40:00
4:53 PM,48.2,44.6,87,29.87,10.0,Calm,Calm,-,0.02,,Overcast,0,2012-09-30 20:53:00
4:56 PM,48.9,44.1,83,29.89,10.0,Calm,Calm,-,0.02,,Overcast,0,2012-09-30 20:56:00
5:56 PM,50.0,45.0,83,29.89,10.0,NW,5.8,-,0.01,,Overcast,310,2012-09-30 21:56:00
6:36 PM,48.2,44.6,87,29.88,10.0,NNW,4.6,-,N/A,,Mostly Cloudy,340,2012-09-30 22:36:00
6:56 PM,48.9,45.0,86,29.91,10.0,NW,5.8,-,N/A,,Overcast,320,2012-09-30 22:56:00
7:10 PM,48.2,46.4,93,29.88,7.0,NW,6.9,-,0.00,Rain,Light Rain,320,2012-09-30 23:10:00
8:56 PM,45.0,42.1,90,29.91,10.0,West,8.1,-,N/A,,Partly Cloudy,270,2012-10-01 00:56:00
9:56 PM,46.0,42.1,86,29.91,10.0,West,6.9,-,N/A,,Clear,270,2012-10-01 01:56:00
10:56 PM,46.0,43.0,89,29.91,10.0,West,8.1,-,N/A,,Clear,270,2012-10-01 02:56:00